TimeEST,TemperatureF,Dew PointF,Humidity,Sea Level PressureIn,VisibilityMPH,Wind Direction,Wind SpeedMPH,Gust SpeedMPH,PrecipitationIn,Events,Conditions,WindDirDegrees,DateUTC
12:54 AM,48.9,39.0,69,30.20,10.0,North,8.1,-,N/A,,Overcast,10,2012-11-20 05:54:00
1:52 AM,48.2,39.2,71,30.17,10.0,North,8.1,-,N/A,,Overcast,360,2012-11-20 06:52:00
1:54 AM,48.0,39.0,71,30.18,10.0,North,8.1,-,N/A,,Overcast,360,2012-11-20 06:54:00
2:54 AM,46.9,39.0,74,30.18,10.0,North,6.9,-,N/A,,Overcast,360,2012-11-20 07:54:00
3:54 AM,46.9,39.0,74,30.18,10.0,North,6.9,-,N/A,,Overcast,360,2012-11-20 08:54:00
4:54 AM,46.9,39.0,74,30.19,10.0,North,6.9,-,N/A,,Overcast,360,2012-11-20 09:54:00
5:54 AM,46.9,39.0,74,30.19,10.0,NNW,5.8,-,N/A,,Overcast,330,2012-11-20 10:54:00
6:54 AM,46.0,39.0,76,30.19,10.0,North,3.5,-,N/A,,Overcast,360,2012-11-20 11:54:00
7:54 AM,48.0,39.0,71,30.19,10.0,North,5.8,-,N/A,,Overcast,350,2012-11-20 12:54:00
8:54 AM,50.0,41.0,71,30.18,10.0,NNE,5.8,-,N/A,,Overcast,20,2012-11-20 13:54:00
9:54 AM,52.0,42.1,69,30.18,10.0,North,4.6,-,N/A,,Overcast,360,2012-11-20 14:54:00
10:54 AM,53.1,42.1,66,30.17,10.0,North,6.9,-,N/A,,Overcast,350,2012-11-20 15:54:00
11:54 AM,54.0,42.1,64,30.15,10.0,NNE,3.5,-,N/A,,Overcast,20,2012-11-20 16:54:00
12:54 PM,57.0,42.1,57,30.12,10.0,NNE,8.1,-,N/A,,Overcast,20,2012-11-20 17:54:00
2:54 PM,55.9,42.1,60,30.09,10.0,NE,6.9,-,N/A,,Overcast,40,2012-11-20 19:54:00
3:54 PM,55.9,41.0,57,30.10,10.0,NE,3.5,-,N/A,,Overcast,40,2012-11-20 20:54:00
4:54 PM,54.0,42.1,64,30.09,10.0,Calm,Calm,-,N/A,,Overcast,0,2012-11-20 21:54:00
5:54 PM,52.0,42.1,69,30.11,10.0,Calm,Calm,-,N/A,,Overcast,0,2012-11-20 22:54:00
6:54 PM,51.1,42.1,71,30.12,10.0,NNE,4.6,-,N/A,,Overcast,20,2012-11-20 23:54:00
7:54 PM,50.0,42.1,74,30.13,10.0,North,4.6,-,N/A,,Overcast,350,2012-11-21 00:54:00
8:54 PM,48.9,43.0,80,30.14,10.0,NE,5.8,-,N/A,,Overcast,40,2012-11-21 01:54:00
9:54 PM,48.0,42.1,80,30.14,10.0,NE,4.6,-,N/A,,Overcast,50,2012-11-21 02:54:00
10:54 PM,46.9,42.1,83,30.13,10.0,ENE,4.6,-,N/A,,Scattered Clouds,70,2012-11-21 03:54:00
11:54 PM,43.0,39.9,89,30.13,10.0,North,4.6,-,N/A,,Partly Cloudy,10,2012-11-21 04:54:00